RH
92 96 92 96 92 84 75 67 84 100 92 93 94 81 74 66 75 69 66 42 41 33 32 29 26 24 24 24 20 20 22 24 24 22 20 19 18 20 22 24 29 31 35 38
100 100 100 87 96 98 87 85 100 97 89 100 100 100 100 91 68 87 68 66 57 46 42 38 37 41 30 30 27 29 28 24 22 22 23 24 25 24 24 25 24 22 22 21
99 98 93 95 95 100 100 100 92 100 100 100 100 100 100 100 92 74 79 89 83 62 58 53 46 40 42 39 34 27 29 29 28 32 26 27 28 35 28 22 23 28 24 23
98 98 100 100 84 76 70 77 100 100 100 100 100 100 100 100 100 85 76 73 89 83 72 64 61 52 44 48 46 39 37 31 30 24 31 29 38 33 31 32 36 45 40 36
100 100 100 100 100 94 92 59 69 74 71 92 100 100 98 100 100 94 100 89 100 66 81 88 78 65 59 57 68 64 44 46 41 33 30 30 30 55 45 46 41 45 58 54
100 100 100 94 98 91 80 94 100 81 63 65 70 81 86 92 97 99 100 100 100 100 97 96 90 90 100 78 65 85 88 71 46 45 43 39 32 31 54 74 68 48 65 74
100 100 100 100 100 100 100 90 85 80 80 76 56 76 82 100 91 75 75 98 100 100 100 99 100 99 89 99 91 77 76 100 100 89 53 74 48 50 57 59 39 56 59 57
100 100 100 100 100 100 85 100 100 100 98 100 99 81 72 72 74 95 100 79 96 96 100 100 100 100 100 95 94 77 64 83 100 100 100 99 97 75 56 74 38 42 51 65
100 100 100 100 100 100 100 100 100 100 100 100 100 100 91 78 81 80 94 100 100 99 100 100 100 100 100 100 100 100 80 69 85 100 100 100 100 100 80 79 76 78 73 94
100 100 100 100 100 100 100 100 100 100 100 100 100 100 99 100 96 96 100 97 91 88 78 82 100 91 97 100 100 100 100 98 100 73 96 100 100 100 100 100 97 97 91 82
100 100 100 100 100 100 100 100 100 100 100 100 100 100 100 100 100 100 98 100 99 86 77 75 83 99 94 93 85 100 90 100 100 100 98 99 100 100 100 98 91 100 100 100
100 100 100 97 100 100 98 100 100 95 100 100 97 100 100 100 100 100 100 100 92 89 79 68 65 74 100 97 81 93 84 84 100 100 100 100 100 100 100 100 100 100 94 99
99 90 94 85 82 99 100 95 74 68 79 93 84 85 100 100 100 100 100 100 100 94 73 69 62 58 67 93 92 88 80 88 81 65 100 100 95 87 99 100 100 100 100 100
80 82 78 70 70 71 76 84 100 96 68 64 94 90 89 100 97 100 100 100 100 100 95 79 67 62 65 100 100 93 100 100 90 77 88 71 83 98 94 89 98 100 100 100
63 74 78 70 55 57 58 61 61 76 98 70 63 59 73 85 82 100 96 93 89 88 71 70 62 55 59 69 74 100 100 100 100 74 74 75 76 71 86 92 92 98 100 97
55 51 50 45 52 57 49 58 57 64 64 64 70 53 54 54 54 64 76 60 57 59 47 42 45 50 55 50 48 100 100 100 100 98 79 77 94 100 97 87 94 100 100 100
74 65 55 47 49 68 60 59 69 60 54 57 74 54 48 46 43 41 41 40 37 36 35 37 35 39 42 40 36 73 80 95 94 88 88 81 77 74 80 82 76 69 66 63
95 84 67 70 61 84 84 76 62 60 65 51 76 62 42 38 36 35 31 31 32 28 26 30 37 42 37 38 52 34 38 55 72 72 68 75 85 91 94 89 77 73 70 68
100 100 100 100 100 82 72 66 47 42 37 35 35 40 34 30 27 27 24 26 26 25 26 30 31 29 37 56 40 27 27 33 41 55 58 66 74 77 86 84 73 73 67 64
92 88 92 96 96 70 75 60 35 42 40 25 30 30 27 21 22 24 21 22 21 20 20 20 20 22 47 38 24 18 23 26 27 34 40 39 41 37 38 60 81 79 77 68
74 84 76 67 72 64 31 25 21 21 23 19 17 16 17 15 16 17 15 13 14 12 12 12 11 15 18 16 18 15 16 18 19 20 25 24 23 23 30 36 34 31 41 53
46 36 43 49 34 18 17 16 15 16 14 14 13 13 13 13 13 13 13 12 11 11 11 10 11 16 15 18 16 17 16 16 16 17 17 20 18 18 20 20 21 24 24 17
20 17 17 16 16 15 14 14 15 15 13 12 12 13 13 12 12 12 12 11 11 10 10 10 11 14 14 14 15 15 16 16 17 18 19 19 20 19 19 19 18 18 18 17
16 16 16 15 14 14 14 14 13 13 12 12 11 11 11 11 11 11 11 10 10 10 10 11 11 11 12 12 12 14 15 16 17 18 18 19 20 20 19 19 19 19 18 16
15 15 14 14 13 12 11 11 11 10 10 10 10 10 10 10 10 10 10 9 9 9 10 9 9 10 11 11 11 12 13 16 16 18 17 17 17 19 20 19 17 15 14 13
10 11 11 10 9 10 10 10 10 9 9 9 9 9 9 9 9 9 9 8 9 9 8 8 9 9 9 9 10 11 14 17 17 17 16 16 16 15 14 14 16 16 14 13
12 12 10 9 10 10 9 9 9 8 9 9 8 8 7 7 7 8 8 7 6 7 8 8 8 8 8 9 10 12 13 13 13 12 13 14 14 15 15 16 17 16 16 15
Wind_Speed
27 24 24 25 25 24 25 27 26 27 31 30 35 38 39 42 41 43 45 48 46 47 46 46 43 48 42 39 35 34 27 18 9 2 6 9 13 15 19 24 24 23 20 29
25 29 26 27 25 27 28 24 23 26 27 28 30 29 33 35 36 37 37 39 40 42 39 42 40 40 40 37 38 37 35 33 31 28 26 24 24 19 14 10 7 4 2 2
31 29 30 31 23 24 29 32 24 24 24 23 26 26 31 25 32 33 34 32 33 36 36 34 35 34 32 33 31 31 30 31 27 29 27 26 28 30 28 24 26 26 22 20
37 38 34 34 27 31 34 30 27 25 24 26 27 25 28 22 29 28 28 30 29 33 34 31 30 31 27 25 27 26 23 24 24 23 23 26 22 28 26 25 23 26 28 28
41 43 43 42 39 43 45 40 38 40 34 30 29 30 26 23 26 26 25 25 22 30 33 34 29 27 27 24 23 23 25 23 21 19 21 22 21 16 18 18 21 22 19 20
45 43 45 49 47 46 46 50 48 48 44 43 44 36 30 28 29 27 23 24 27 30 32 32 32 29 25 26 26 26 24 26 27 21 21 19 18 14 10 12 13 18 17 16
51 52 54 54 53 54 50 51 49 52 53 53 51 47 41 36 36 38 32 28 27 31 33 33 33 34 32 29 29 30 30 30 31 32 28 29 22 19 16 14 17 17 17 18
54 54 56 57 57 57 55 53 56 54 53 53 51 52 50 45 42 39 37 40 33 33 33 36 37 35 38 35 36 32 30 35 36 37 36 36 38 29 25 23 24 27 24 23
55 58 57 60 60 60 62 60 58 57 57 56 52 50 52 53 51 48 42 44 43 42 39 40 40 40 41 40 44 41 40 32 37 41 41 41 47 41 41 36 32 29 32 32
65 64 64 64 64 67 65 66 64 61 58 63 62 62 58 55 54 55 53 46 50 51 53 50 51 50 48 45 46 49 47 42 43 39 41 49 50 50 48 50 46 45 46 45
69 70 71 72 74 74 75 75 73 71 72 69 70 71 66 65 65 64 59 61 65 64 63 58 59 62 61 58 57 54 51 50 52 51 49 51 58 55 54 55 56 58 59 59
79 76 77 77 76 81 81 80 79 77 75 76 76 76 74 75 74 71 73 77 75 75 75 74 71 67 68 69 67 63 63 59 55 57 59 58 57 61 64 65 64 64 66 66
84 85 85 83 83 78 81 87 91 91 85 81 82 81 79 77 78 75 74 79 80 82 80 82 80 80 78 77 75 73 72 72 67 65 68 69 67 62 62 70 74 76 79 74
91 93 93 88 90 83 88 85 88 94 94 90 87 89 84 86 90 88 85 85 87 90 93 89 89 85 82 80 80 78 81 80 81 74 79 75 74 75 74 73 76 81 83 85
89 94 96 93 92 92 93 93 90 87 92 97 100 103 101 98 96 94 96 96 96 98 98 100 95 93 93 85 84 81 89 89 88 85 86 82 82 81 83 83 85 87 88 88
100 94 94 95 88 93 95 96 98 100 101 102 102 107 110 112 107 107 108 106 106 108 107 104 101 101 100 92 87 88 90 95 103 99 96 90 90 92 93 91 92 96 97 99
110 109 106 106 100 108 109 114 109 112 110 110 108 107 109 115 117 118 112 110 111 111 110 105 102 99 102 94 88 93 97 103 106 108 106 103 101 99 101 102 103 104 104 103
122 124 115 114 113 120 120 124 122 122 121 112 113 109 105 111 112 109 104 104 103 100 101 99 101 99 99 94 95 100 101 103 106 109 110 109 109 107 109 110 112 112 110 110
126 133 130 129 130 128 127 124 122 117 116 112 104 104 109 106 102 104 102 100 100 100 95 96 98 95 94 96 100 101 99 102 104 105 108 111 113 115 118 119 115 113 113 111
132 135 134 136 131 123 128 121 118 113 111 105 101 106 100 97 97 97 99 97 96 92 90 94 93 87 91 97 101 102 100 102 103 104 106 106 107 108 109 116 120 120 117 113
133 135 132 123 124 123 114 110 109 110 110 104 102 101 99 98 98 99 97 94 95 90 88 94 88 84 86 96 101 101 100 103 103 102 104 104 103 106 107 108 110 109 113 117
122 120 117 119 117 114 114 110 111 110 108 106 103 102 100 100 100 97 96 96 92 86 86 85 82 85 93 94 97 99 99 100 100 100 99 101 103 99 100 102 102 105 105 104
115 113 113 113 114 113 112 112 110 109 109 108 105 102 101 100 99 98 98 93 91 88 85 84 85 92 96 96 97 97 96 97 96 95 94 96 93 94 94 94 96 94 94 95
117 117 116 115 117 117 117 114 110 110 109 107 104 104 100 98 98 98 93 93 89 88 86 88 96 96 93 93 93 93 94 94 93 93 93 92 92 93 93 92 91 90 90 90
118 117 117 116 118 119 115 113 111 110 107 103 102 101 97 95 96 93 92 91 88 89 93 96 93 90 90 91 90 90 88 90 89 90 89 88 88 87 89 91 89 88 86 84
109 106 107 111 111 109 108 109 108 106 103 100 100 98 94 93 93 87 88 92 92 93 93 91 90 88 86 84 85 85 86 86 86 87 87 85 85 85 83 84 87 90 87 81
90 90 96 99 99 99 98 99 100 98 97 95 93 91 91 84 81 82 86 89 87 84 84 83 81 81 81 82 83 82 83 83 82 83 83 84 82 82 82 83 85 88 85 83
Wind_Direction
335 337 341 346 349 357 0 358 358 359 359 2 7 11 15 15 16 21 24 29 30 34 37 43 40 56 57 68 73 70 70 75 85 137 233 246 254 254 253 254 253 252 252 261
331 335 332 334 341 345 348 352 355 352 359 358 357 1 4 5 12 8 14 19 21 23 27 31 31 33 43 51 55 53 67 69 73 73 75 78 76 74 80 89 99 111 155 300
316 317 321 323 330 341 344 339 337 333 341 349 351 352 353 354 4 5 2 5 9 12 16 18 21 21 24 32 35 46 45 53 64 66 78 81 56 66 70 78 76 70 76 75
304 311 310 310 306 314 321 334 328 326 327 325 329 339 340 340 348 349 354 356 356 358 356 1 5 9 11 11 15 17 32 34 43 37 34 46 36 44 52 55 47 52 62 65
300 303 305 308 309 314 317 316 319 322 322 321 318 321 325 324 328 335 330 335 339 344 344 342 340 350 354 352 349 349 358 6 10 19 18 7 22 12 26 36 33 26 27 27
292 291 293 299 301 304 309 310 311 310 312 319 321 318 316 312 318 326 315 322 314 319 326 326 329 322 324 332 329 323 324 328 340 344 340 344 348 357 350 353 5 12 6 1
286 291 290 293 293 297 299 301 303 306 307 309 311 313 311 310 314 314 315 308 303 305 307 309 317 316 314 312 315 311 307 304 309 313 320 315 313 318 321 312 341 335 339 345
284 287 287 289 292 293 293 294 298 296 298 299 300 302 305 304 306 305 301 304 298 302 298 295 299 304 301 300 300 300 305 295 291 292 297 300 297 299 293 287 319 318 317 320
270 274 279 284 285 289 292 292 292 293 293 289 287 289 291 295 298 298 295 296 299 296 292 284 285 290 290 290 290 292 295 287 284 286 291 290 287 293 294 293 280 287 290 282
264 265 268 270 274 280 285 286 287 288 287 289 287 285 285 283 285 290 290 284 289 291 295 294 281 283 279 278 279 282 283 282 278 276 278 280 283 286 286 289 290 283 282 278
261 264 266 268 269 272 277 279 280 282 283 281 285 285 284 281 280 282 285 287 289 288 287 288 293 285 284 275 280 272 275 273 276 275 273 273 274 278 280 283 285 286 286 288
263 265 265 268 273 275 274 277 279 278 279 281 282 279 279 280 280 281 285 282 283 288 288 286 284 291 280 280 279 274 274 271 268 271 271 272 269 272 277 277 278 281 282 283
266 265 267 269 270 274 278 277 278 278 277 277 279 278 276 276 278 279 282 285 286 285 286 284 286 285 286 279 275 275 273 272 270 270 264 267 271 271 269 271 272 275 276 278
265 267 267 268 269 276 272 275 279 277 277 275 274 274 275 278 278 275 275 277 283 284 285 287 285 284 281 274 271 271 267 266 269 271 266 265 265 266 269 269 270 269 271 271
267 266 267 269 272 271 277 273 274 285 287 279 277 275 273 276 277 275 275 275 275 278 280 282 281 281 282 275 270 268 264 263 263 267 269 269 266 266 266 267 267 268 269 270
268 277 272 273 277 281 278 282 279 281 279 281 281 275 277 275 273 273 274 276 275 276 277 278 280 279 279 277 271 263 263 263 264 264 267 268 264 262 264 266 267 268 269 270
282 281 281 277 278 285 284 284 284 281 280 282 285 278 279 276 274 274 275 275 276 278 279 279 278 279 278 278 275 267 265 262 263 266 268 269 268 266 265 267 269 271 271 271
280 282 281 282 283 285 287 286 287 283 284 278 283 282 279 277 276 275 276 276 277 278 278 278 278 277 278 278 273 271 269 268 268 267 268 269 267 267 268 270 273 273 273 274
276 278 279 281 283 283 284 285 284 283 278 280 279 280 277 277 279 275 276 274 275 276 277 277 276 277 277 275 274 272 270 268 267 269 270 270 269 269 270 271 272 273 276 278
274 274 273 276 279 281 284 284 283 282 281 281 280 279 278 277 278 276 277 276 276 276 276 276 275 274 271 273 273 272 271 270 271 271 271 272 273 273 273 272 273 275 277 278
272 273 275 277 278 278 277 278 279 279 279 279 278 278 278 279 278 276 277 277 276 278 278 276 277 276 273 270 269 271 271 270 271 273 273 273 274 273 272 274 273 275 275 275
274 272 272 276 277 277 277 277 276 277 277 276 276 276 277 277 277 278 278 277 279 279 277 278 279 276 273 271 270 272 273 273 272 272 273 274 273 274 273 273 274 274 275 278
272 274 275 275 275 275 276 276 275 276 276 275 275 276 275 276 276 277 277 279 279 278 279 278 276 270 269 270 272 272 273 273 273 273 273 273 274 274 274 275 275 275 275 277
271 272 274 274 274 274 274 275 275 275 275 275 276 276 276 276 276 277 279 279 279 278 277 274 270 269 271 271 271 272 273 274 275 276 276 276 275 276 276 276 275 275 276 277
270 272 273 272 272 272 273 274 274 274 274 275 275 275 276 277 277 279 280 279 278 277 274 271 271 270 271 272 273 274 276 276 276 275 275 275 275 274 275 277 278 277 276 277
269 270 270 269 270 271 271 272 273 273 275 276 275 276 277 277 279 279 278 275 274 271 271 273 273 275 276 277 276 274 273 272 273 274 274 274 275 275 275 276 277 278 279 279
268 267 268 268 268 269 271 271 272 274 274 274 276 278 278 280 279 276 273 272 273 275 278 279 279 277 275 274 273 271 271 272 273 274 274 274 274 273 273 273 274 275 278 280